GW0413 Weather Reports


time (UTC)temp
F
wind
direction
speed
knots
gust
knots
rain 1hr
in
rain 24hr
in
rain mn
in
humidity
%
barometer
mb
20260505051531 48 194 2.6 6.1 0.00 0.00 0.00 36 1014.5
20260505041541 45 51 3.5 7.8 0.00 0.00 0.00 44 1014.2
20260505040037 46 69 1.7 6.1 0.00 0.00 0.00 41 1014.1
20260505034532 46 58 5.2 7.8 0.00 0.00 0.00 41 1013.9
20260505033029 46 48 4.3 7.8 0.00 0.00 0.00 42 1014.0
20260505031537 46 51 4.3 7.8 0.00 0.00 0.00 40 1013.8
20260505030028 46 42 4.3 7.8 0.00 0.00 0.00 43 1013.9
20260505024528 48 33 1.7 5.2 0.00 0.00 0.00 40 1013.9
20260505023027 51 360 1.7 2.6 0.00 0.00 0.00 30 1013.9
20260505021528 50 360 2.6 3.5 0.00 0.00 0.00 33 1013.9
20260505020031 52 321 0.9 2.6 0.00 0.00 0.00 31 1013.8
20260505014534 53 321 0.9 2.6 0.00 0.00 0.00 31 1013.6
20260505013030 54 278 1.7 6.1 0.00 0.00 0.00 30 1013.9
20260505011530 54 255 3.5 7.0 0.00 0.00 0.00 29 1013.9
20260505010031 55 225 4.3 10.4 0.00 0.00 0.00 29 1014.0
20260505004533 55 270 4.3 7.8 0.00 0.00 0.00 30 1014.1
20260505003031 56 287 7.0 10.4 0.00 0.00 0.00 28 1014.1
20260505001529 56 292 7.0 11.3 0.00 0.00 0.00 27 1014.3
20260505000045 57 268 4.3 10.4 0.00 0.00 0.00 28 1014.3
20260504234533 57 275 8.7 12.2 0.00 0.00 0.00 27 1014.4
20260504233028 57 274 4.3 12.2 0.00 0.00 0.00 27 1014.7
20260504231532 58 294 5.2 12.2 0.00 0.00 0.00 25 1014.9
20260504230027 57 271 3.5 9.6 0.00 0.00 0.00 29 1014.8
20260504224528 58 233 6.1 13.0 0.00 0.00 0.00 32 1014.9
20260504223042 57 261 5.2 14.8 0.00 0.00 0.00 34 1014.9
20260504221531 57 255 8.7 17.4 0.00 0.00 0.00 32 1014.8
20260504220028 58 297 2.6 14.8 0.00 0.00 0.00 30 1015.0
20260504214531 59 253 10.4 16.5 0.00 0.00 0.00 27 1015.1
20260504213037 59 265 7.0 12.2 0.00 0.00 0.00 32 1015.1
20260504211532 58 202 5.2 13.0 0.00 0.00 0.00 31 1015.6
20260504210030 59 260 7.8 13.0 0.00 0.00 0.00 31 1015.6
20260504204541 58 236 7.8 13.0 0.00 0.00 0.00 35 1015.6
20260504203029 58 251 7.8 18.2 0.00 0.00 0.00 35 1015.9
20260504201529 57 244 10.4 15.6 0.00 0.00 0.00 38 1016.0
20260504200028 56 275 9.6 19.1 0.00 0.00 0.00 41 1016.1
20260504194526 57 218 8.7 15.6 0.00 0.00 0.00 42 1016.4
20260504193030 56 238 6.1 14.8 0.00 0.00 0.00 43 1016.4
20260504191530 56 218 4.3 13.9 0.00 0.00 0.00 43 1016.4
20260504190028 56 298 7.8 12.2 0.00 0.00 0.00 44 1016.4
20260504184526 55 263 7.8 14.8 0.00 0.00 0.00 47 1016.7
20260504183027 56 234 5.2 12.2 0.00 0.00 0.00 48 1016.9
20260504181531 55 240 4.3 12.2 0.00 0.00 0.00 47 1017.0
20260504180028 55 232 3.5 7.8 0.00 0.00 0.00 49 1017.3
20260504174528 55 234 6.1 11.3 0.00 0.00 0.00 51 1017.3
20260504173026 55 227 3.5 7.8 0.00 0.00 0.00 52 1017.3
20260504171530 54 275 4.3 9.6 0.00 0.00 0.00 51 1017.4
20260504081528 45 21 7.0 12.2 0.00 0.00 0.00 71 1017.6